This demonstration page uses our WeatherBlox Daily Observations layout. Learn more.

Left ArrowRight Arrow

Hourly Observations for August 25, 2020

Temp ( °F °C ) Dew Point ( °F °C ) Humidity (%) Winds ( mph kmh ) Pressure ( in mb ) Visibility ( mi km ) Precip ( " mm )
12:53 am 00:53 Clear 75 23.9 61 16.1 62 62 S 6 9 29.95 1014 10 16 0.00 0.00
1:53 am 01:53 Clear 75 23.9 61 16.1 62 62 SSW 8 13 29.95 1014 10 16 0.00 0.00
2:53 am 02:53 Clear 74 23.3 61 16.1 64 64 S 5 7 29.94 1014 10 16 0.00 0.00
3:53 am 03:53 Clear 73 22.8 60 15.6 64 64 S 6 9 29.94 1014 10 16 0.00 0.00
4:53 am 04:53 Clear 72 22.2 60 15.6 66 66 S 7 11 29.95 1014 10 16 0.00 0.00
5:53 am 05:53 Clear 71 21.7 60 15.6 68 68 S 8 13 29.95 1014 10 16 0.00 0.00
6:53 am 06:53 Clear 69 20.6 60 15.6 73 73 S 8 13 29.96 1015 10 16 0.00 0.00
7:53 am 07:53 Sunny 68 20 61 16.1 78 78 S 9 15 29.96 1015 10 16 0.00 0.00
8:53 am 08:53 Sunny 73 22.8 62 16.7 69 69 S 10 17 29.97 1015 10 16 0.00 0.00
9:53 am 09:53 Sunny 77 25 61 16.1 58 58 SSW 13 20 29.96 1015 10 16 0.00 0.00
10:53 am 10:53 Sunny 81 27.2 62 16.7 53 53 SSW 12 19 29.96 1015 10 16 0.00 0.00
11:53 am 11:53 Sunny 85 29.4 62 16.7 46 46 S 12 19 29.96 1014 10 16 0.00 0.00
12:53 pm 12:53 Sunny 87 30.6 62 16.7 43 43 SSW 15 24 29.94 1014 10 16 0.00 0.00
1:53 pm 13:53 Sunny 91 32.8 62 16.7 38 38 SSW 15 24 29.92 1013 10 16 0.00 0.00
2:53 pm 14:53 Sunny 93 33.9 59 15 32 32 SSW 17 28 29.91 1013 10 16 0.00 0.00
3:53 pm 15:53 Sunny 94 34.4 59 15 31 31 SSW 15 24 29.89 1012 10 16 0.00 0.00
4:53 pm 16:53 Sunny 94 34.4 59 15 31 31 S 12 19 29.89 1012 10 16 0.00 0.00
5:53 pm 17:53 Sunny 92 33.3 62 16.7 37 37 S 13 20 29.88 1012 10 16 0.00 0.00
6:53 pm 18:53 Sunny 89 31.7 61 16.1 39 39 S 10 17 29.88 1012 10 16 0.00 0.00
7:53 pm 19:53 Sunny 85 29.4 60 15.6 43 43 S 8 13 29.88 1012 10 16 0.00 0.00
8:53 pm 20:53 Clear 81 27.2 60 15.6 49 49 S 8 13 29.89 1012 10 16 0.00 0.00
9:53 pm 21:53 Clear 77 25 58 14.4 52 52 S 9 15 29.90 1013 10 16 0.00 0.00
10:53 pm 22:53 Clear 74 23.3 57 13.9 56 56 S 6 9 29.90 1013 10 16 0.00 0.00
11:53 pm 23:53 Clear 72 22.2 57 13.9 59 59 S 6 9 29.91 1013 10 16 0.00 0.00

Powered by AerisWeather